This is the latest recevied weather packets stored in our database for station/object IZ8FMH-11. If no packets are shown the sender has not sent any weather packets the latest 10 day(s).
| Time | Temp. | Humidity | Pressure | Rain* | Wind** | Luminosity | Snow |
|---|---|---|---|---|---|---|---|
| 1788064499 | 27.22° C | 55% | 1010.2 hPa | - | - | - | - |
| 1788062699 | 27.22° C | 58% | 1010.3 hPa | - | - | - | - |
| 1788060899 | 27.22° C | 52% | 1010.1 hPa | - | - | - | - |
| 1788059099 | 27.22° C | 46% | 1011 hPa | - | - | - | - |
| 1788057299 | 27.78° C | 46% | 1011.6 hPa | - | - | - | - |
| 1788055499 | 27.78° C | 45% | 1011.9 hPa | - | - | - | - |
| 1788053698 | 27.78° C | 46% | 1012.6 hPa | - | - | - | - |
| 1788051898 | 27.78° C | 47% | 1012.9 hPa | - | - | - | - |
| 1788050098 | 28.33° C | 48% | 1013.2 hPa | - | - | - | - |
| 1788048300 | 28.33° C | 49% | 1013.4 hPa | - | - | - | - |
| 1788046500 | 28.33° C | 50% | 1013.2 hPa | - | - | - | - |
| 1788044700 | 28.89° C | 48% | 1013.3 hPa | - | - | - | - |
| 1788042900 | 28.89° C | 46% | 1013.4 hPa | - | - | - | - |
| 1788041099 | 28.89° C | 44% | 1013.5 hPa | - | - | - | - |
| 1788039299 | 29.44° C | 45% | 1013.4 hPa | - | - | - | - |
| 1788037499 | 29.44° C | 48% | 1013.3 hPa | - | - | - | - |
| 1788035699 | 29.44° C | 48% | 1013.3 hPa | - | - | - | - |
| 1788033899 | 30° C | 49% | 1013.2 hPa | - | - | - | - |
| 1788032099 | 30° C | 51% | 1013 hPa | - | - | - | - |
| 1788030299 | 30.56° C | 56% | 1012.8 hPa | - | - | - | - |
| 1788028499 | 30.56° C | 61% | 1012.4 hPa | - | - | - | - |
| 1788026699 | 31.11° C | 65% | 1012.2 hPa | - | - | - | - |
| 1788024899 | 31.11° C | 64% | 1012.5 hPa | - | - | - | - |
| 1788023099 | 31.67° C | 63% | 1012.6 hPa | - | - | - | - |
| 1788021298 | 31.67° C | 64% | 1012.8 hPa | - | - | - | - |
* Rain since midnight (hover to see other rain measurements)
** Current wind speed in m/s (hover to see current wind gust speed)